Location: Bay Ridge
(40.6340°N, 74.0146°W)
Time: 11:52:32
(UTC+00:00)

Tsikada Rocket - Pass Details

Date: 15 November 2019
Orbit: 958 x 1009 km, 82.9° (Epoch: 12 December)

Event Time Altitude Azimuth Distance (km) Brightness Sun altitude
Rises 10:42:20 0° 354° (N) 3,745 6.8 -11.6°
Reaches altitude 10° 10:44:54 10° 356° (N) 2,787 6.2 -11.1°
Maximum altitude 10:51:19 75° 82° (E) 1,033 4.3 -9.9°
Drops below altitude 10° 10:57:37 10° 168° (SSE) 2,740 6.8 -8.8°
Sets 11:00:07 0° 170° (S) 3,677 7.4 -8.3°
